星链-3452 (STARLINK-3452 )

导读 | 豆包AI

STARLINK-3452是美国SpaceX公司星链(Starlink)星座中的一颗卫星,于2022年2月21日发射入轨,属于星链项目中低轨卫星互联网部署的一环,承担着为全球提供高速互联网接入服务的任务,是Starlink大规模星座组网进程中的组成单元,依托低轨部署实现更低时延的网络传输服务。

Basic Information
目录编号:
51744
目录名称:
STARLINK-3452
国际标识:
2022-016AG
轨道中心:
EARTH
卫星名称:
星链-3452
卫星全名:
星链-3452 (STARLINK-3452 )
卫星状态:
在轨 (已飞行1530 天)
发射日期:
2022-02-21 UTC
国别 :
美国 (US)
星等 :
--
Orbit Information
数据来源 国际轨道数据 AOE轨道数据
星历时间 2026-04-30T13:22:08+0800
20小时前
查看轨道信息
2026-04-27T12:00:00+0800
3天前
查看轨道信息
半长轴 6917.886km 6917.88km
偏心率 0.0001356 0.0000708
轨道倾角 53.217° 53.217°
近地点辐角 83.164° 80.236°
升交点赤经 87.803° 101.524°
平近点角 276.951° 225.563°
近地点 538.81km 539.253km
远地点 540.688km 540.233km
周期 95.438分钟 95.438分钟
每日圈数 15.088382 15.088402
Detailed Information
固有亮度:
5
最大亮度:
2.5
卫星平台:
Starlink v1.5
覆盖范围:
全球
运营商:
太空探索技术公司
运营商所在国:
美国
制造商(研发单位):
太空探索技术公司
制造商所在国:
美国
使用方式:
暂无
Satellite Introduction
星链(Starlink)计划是由太空探索技术公司(SpaceX)提出的一个巨型低轨卫星互联网星座项目,计划在2019年至2024年间在太空搭建由约1.2万颗卫星组成的“星链”网络,其中1584颗将部署在地球上空550千米处的近地轨道,并从2020年开始工作。该卫星仍在工作。
2D Orbit Map
3D Orbit Map
Orbit Altitude Analysis Chart
Orbit Inclination Analysis Chart
Orbit Comprehensive Analysis Chart
View Comprehensive Chart